Погода в Довиле

Франция     49°21′29″N   0°04′35″E
темп.,
°C
ветер,
м/с
пор.,
м/с
влажн.,
%
обл.,
%
осадки,
мм/ч
давл.,
гПа
погр.,
м
14 июня, пн
пн1423:00+17вюв33805 0.0 102326
02:00+15вюв33855 0.0 102235
05:00+14ююв33880 0.0 102133
08:00+17ююв22772 0.0 102170
11:00+22з11635 0.0 1021379
14:00+22сз32605 0.0 1021601
17:00+20ссз45675 0.0 1021277
20:00+18сз45765 0.0 1020175
15 июня, вт
вт1523:00+15сз22895 0.0 102116
02:00+14юз2294100 0.0 102122
05:00+14зюз2398100 0.0 102041
08:00+16ссз2294100 0.0 1021122
11:00+18сз348338 0.0 1021292
14:00+19ссз437934 0.0 1021420
17:00+19ссз448030 0.0 1019341
20:00+17ссз458721 0.0 1018174
16 июня, ср
ср1623:00+16с11928 0.0 101711
02:00+15ююв11941 0.0 101711
05:00+15вюв11940 0.0 101511
08:00+18юв23890 0.0 101499
11:00+23ю13660 0.0 1013515
14:00+24с426530 0.0 1012603
17:00+24ссв346125 0.0 1010687
20:00+27юв485675 0.0 1008362
17 июня, чт
чт1723:00+18ссз689787 3.4 1010161
02:00+17юв4697100 5.1 1009105
05:00+17юв2297100 3.2 100852
08:00+18ююв3596100 3.6 1008165
11:00+21ю468795 1.0 1009533
14:00+23юз368357 2.0 1008596
17:00+20ссз229166 1.1 1009200
20:00+18с4593100 1.4 1009146
18 июня, пт
пт1823:00+16сз229997 0.0 101073
02:00+15зсз2398100 0.3 1011191
05:00+16зюз1297100 0.1 101192
08:00+17зюз3492100 0.2 1012355
11:00+18ююз3482100 0.0 1013507
14:00+22юз4566100 0.0 1013823
17:00+23зюз356275 0.0 1012959
20:00+20с457653 0.0 1012186